User: anonymous   Login
Location: Kawakawa
(35.3830°S, 174.0670°E)
Time: 02:58:23
(UTC+13:00)
Language:

IRIDIUM 106 - Orbit

View from above orbital plane
View from above orbital plane
View from above satellite
View from above satellite

Ground track
Ground track

The orbit data is extracted from the following two-line orbital elements,

1 41917U 17003A   20294.52874289 +.00000091 +00000-0 +25598-4 0  9998
2 41917 086.4004 231.6639 0001913 092.8011 267.3404 14.34217224197138
Epoch (UTC): 20 October 2020 12:41:23
Eccentricity: 0.0001913
inclination: 86.4004°
perigee height: 776 km
apogee height: 779 km
right ascension of ascending node: 231.6639°
argument of perigee: 92.8011°
revolutions per day: 14.34217224
mean anomaly at epoch: 267.3404°
orbit number at epoch: 19713

The dashed part of the orbit path shows where the satellite is in the earth's shadow,  

DLR